Previsão horária em Barlinek

Hoje, 23 Julho, Sexta-feira

Tempo Temperatura Precipitação Vento Pressão Humidade
00:00 +18°C° 0 mm 1 m/s 757 mmHg 79%
01:00 +19°C° 0 mm 1 m/s 757 mmHg 78%
02:00 +18°C° 0 mm 1 m/s 757 mmHg 80%
03:00 +16°C° 0 mm 1 m/s 757 mmHg 83%
04:00 +16°C° 0 mm 1 m/s 757 mmHg 85%
05:00 +18°C° 0 mm 1 m/s 757 mmHg 81%
06:00 +19°C° 0 mm 1 m/s 757 mmHg 77%
07:00 +20°C° 0 mm 1 m/s 757 mmHg 73%
08:00 +20°C° 0 mm 2 m/s 757 mmHg 66%
09:00 +21°C° 0 mm 2 m/s 757 mmHg 60%
10:00 +24°C° 0 mm 2 m/s 757 mmHg 53%
11:00 +25°C° 0 mm 2 m/s 756 mmHg 50%
12:00 +26°C° 0 mm 2 m/s 756 mmHg 47%
13:00 +26°C° 0 mm 3 m/s 756 mmHg 44%
14:00 +26°C° 0 mm 3 m/s 756 mmHg 45%
15:00 +26°C° 0 mm 3 m/s 755 mmHg 45%
16:00 +26°C° 0 mm 3 m/s 755 mmHg 46%
17:00 +25°C° 0 mm 2 m/s 755 mmHg 51%
18:00 +24°C° 0 mm 2 m/s 755 mmHg 56%
19:00 +23°C° 0 mm 1 m/s 755 mmHg 61%
20:00 +22°C° 0 mm 1 m/s 755 mmHg 63%
21:00 +20°C° 0 mm 2 m/s 755 mmHg 65%
22:00 +19°C° 0 mm 2 m/s 755 mmHg 67%
23:00 +19°C° 0 mm 2 m/s 755 mmHg 68%

Amanhã, 24 Julho, Sábado

Tempo Temperatura Precipitação Vento Pressão Humidade
00:00 +19°C° 0 mm 2 m/s 755 mmHg 70%
01:00 +18°C° 0 mm 2 m/s 755 mmHg 71%
02:00 +18°C° 0 mm 2 m/s 755 mmHg 71%
03:00 +18°C° 0 mm 2 m/s 755 mmHg 71%
04:00 +18°C° 0 mm 2 m/s 755 mmHg 71%
05:00 +19°C° 0 mm 2 m/s 755 mmHg 70%
06:00 +20°C° 0 mm 2 m/s 755 mmHg 70%
07:00 +20°C° 0 mm 2 m/s 755 mmHg 69%
08:00 +23°C° 0 mm 2 m/s 755 mmHg 63%
09:00 +24°C° 0 mm 3 m/s 755 mmHg 56%
10:00 +26°C° 0 mm 4 m/s 754 mmHg 49%
11:00 +27°C° 0 mm 3 m/s 754 mmHg 46%
12:00 +27°C° 0 mm 3 m/s 754 mmHg 43%
13:00 +28°C° 0 mm 3 m/s 754 mmHg 40%
14:00 +28°C° 0 mm 3 m/s 754 mmHg 40%
15:00 +28°C° 0 mm 3 m/s 754 mmHg 41%
16:00 +29°C° 0 mm 3 m/s 754 mmHg 41%
17:00 +27°C° 0 mm 3 m/s 753 mmHg 46%
18:00 +26°C° 0 mm 3 m/s 753 mmHg 51%
19:00 +25°C° 0 mm 4 m/s 753 mmHg 55%
20:00 +23°C° 0 mm 4 m/s 753 mmHg 58%
21:00 +22°C° 0 mm 4 m/s 753 mmHg 61%
22:00 +21°C° 0 mm 4 m/s 753 mmHg 64%
23:00 +21°C° 0 mm 4 m/s 753 mmHg 64%

Depois de amanhã, 25 Julho, Domingo

Tempo Temperatura Precipitação Vento Pressão Humidade
00:00 +20°C° 0 mm 3 m/s 753 mmHg 64%
01:00 +20°C° 0 mm 3 m/s 753 mmHg 64%
02:00 +20°C° 0 mm 3 m/s 753 mmHg 66%
03:00 +19°C° 0 mm 3 m/s 753 mmHg 68%
04:00 +18°C° 0 mm 3 m/s 753 mmHg 69%
05:00 +19°C° 0 mm 4 m/s 753 mmHg 67%
06:00 +21°C° 0 mm 4 m/s 753 mmHg 64%
07:00 +22°C° 0 mm 5 m/s 753 mmHg 61%
08:00 +25°C° 0 mm 5 m/s 753 mmHg 56%
09:00 +27°C° 0 mm 5 m/s 753 mmHg 51%
10:00 +28°C° 0 mm 5 m/s 753 mmHg 45%
11:00 +29°C° 0 mm 5 m/s 752 mmHg 43%
12:00 +30°C° 0 mm 4 m/s 752 mmHg 41%
13:00 +32°C° 0 mm 4 m/s 752 mmHg 39%
14:00 +30°C° 0.7 mm 4 m/s 752 mmHg 47%
15:00 +28°C° 0.7 mm 3 m/s 752 mmHg 56%
16:00 +27°C° 0.7 mm 3 m/s 752 mmHg 64%
17:00 +25°C° 3.8 mm 3 m/s 752 mmHg 73%
18:00 +22°C° 3.8 mm 3 m/s 752 mmHg 83%
19:00 +20°C° 3.8 mm 3 m/s 753 mmHg 92%
20:00 +20°C° 0.2 mm 3 m/s 753 mmHg 93%
21:00 +20°C° 0.2 mm 3 m/s 753 mmHg 94%
22:00 +19°C° 0.2 mm 3 m/s 753 mmHg 95%
23:00 +19°C° 0 mm 3 m/s 753 mmHg 95%

26 Julho, Segunda-feira

Tempo Temperatura Precipitação Vento Pressão Humidade
00:00 +18°C° 0 mm 3 m/s 753 mmHg 95%
01:00 +18°C° 0 mm 2 m/s 753 mmHg 94%
02:00 +18°C° 0 mm 3 m/s 753 mmHg 95%
03:00 +17°C° 0 mm 3 m/s 753 mmHg 95%
04:00 +17°C° 0 mm 3 m/s 753 mmHg 96%
05:00 +18°C° 0 mm 3 m/s 753 mmHg 91%
06:00 +19°C° 0 mm 2 m/s 753 mmHg 87%
07:00 +20°C° 0 mm 2 m/s 753 mmHg 83%
08:00 +23°C° 0 mm 2 m/s 753 mmHg 76%
09:00 +25°C° 0 mm 2 m/s 753 mmHg 68%
10:00 +27°C° 0 mm 2 m/s 753 mmHg 61%
11:00 +28°C° 0 mm 2 m/s 753 mmHg 57%
12:00 +29°C° 0 mm 2 m/s 752 mmHg 53%
13:00 +30°C° 0 mm 2 m/s 752 mmHg 49%
14:00 +30°C° 0 mm 1 m/s 752 mmHg 47%
15:00 +30°C° 0 mm 1 m/s 752 mmHg 46%
16:00 +31°C° 0 mm 1 m/s 752 mmHg 44%
17:00 +28°C° 1.8 mm 2 m/s 752 mmHg 57%
18:00 +26°C° 1.8 mm 3 m/s 752 mmHg 71%
19:00 +22°C° 1.8 mm 4 m/s 752 mmHg 84%
20:00 +21°C° 1.4 mm 3 m/s 752 mmHg 86%
21:00 +21°C° 1.4 mm 2 m/s 752 mmHg 88%
22:00 +21°C° 1.4 mm 1 m/s 752 mmHg 89%
23:00 +20°C° 0 mm 2 m/s 752 mmHg 89%

27 Julho, Terça-feira

Tempo Temperatura Precipitação Vento Pressão Humidade
00:00 +19°C° 0 mm 2 m/s 752 mmHg 88%
01:00 +19°C° 0 mm 2 m/s 752 mmHg 88%
02:00 +18°C° 0 mm 2 m/s 752 mmHg 89%
03:00 +18°C° 0 mm 2 m/s 752 mmHg 91%
04:00 +17°C° 0 mm 2 m/s 753 mmHg 92%
05:00 +19°C° 0 mm 2 m/s 753 mmHg 89%
06:00 +20°C° 0 mm 2 m/s 753 mmHg 85%
07:00 +21°C° 0 mm 2 m/s 753 mmHg 81%
08:00 +22°C° 0.1 mm 3 m/s 753 mmHg 74%
09:00 +25°C° 0.1 mm 3 m/s 753 mmHg 67%
10:00 +26°C° 0.1 mm 3 m/s 753 mmHg 61%
11:00 +27°C° 0.1 mm 4 m/s 753 mmHg 56%
12:00 +28°C° 0.1 mm 4 m/s 753 mmHg 52%
13:00 +29°C° 0.1 mm 4 m/s 753 mmHg 47%
14:00 +28°C° 0 mm 4 m/s 753 mmHg 47%
15:00 +28°C° 0 mm 4 m/s 753 mmHg 48%
16:00 +28°C° 0 mm 4 m/s 753 mmHg 48%
17:00 +27°C° 0 mm 3 m/s 753 mmHg 56%
18:00 +25°C° 0 mm 3 m/s 753 mmHg 63%
19:00 +24°C° 0 mm 2 m/s 753 mmHg 71%
20:00 +23°C° 0 mm 1 m/s 753 mmHg 73%
21:00 +22°C° 0 mm 1 m/s 753 mmHg 76%
22:00 +19°C° 0 mm 0 m/s 753 mmHg 78%
23:00 +20°C° 0.4 mm 1 m/s 753 mmHg 82%

28 Julho, Quarta-feira

Tempo Temperatura Precipitação Vento Pressão Humidade
00:00 +20°C° 0.4 mm 1 m/s 753 mmHg 85%
01:00 +18°C° 0.4 mm 2 m/s 753 mmHg 89%
02:00 +18°C° 0.3 mm 2 m/s 753 mmHg 90%
03:00 +18°C° 0.3 mm 2 m/s 753 mmHg 91%
04:00 +18°C° 0.3 mm 2 m/s 753 mmHg 92%
05:00 +18°C° 0 mm 3 m/s 753 mmHg 89%
06:00 +19°C° 0 mm 3 m/s 754 mmHg 86%
07:00 +19°C° 0 mm 4 m/s 754 mmHg 84%
08:00 +21°C° 0 mm 4 m/s 754 mmHg 75%
09:00 +22°C° 0 mm 4 m/s 754 mmHg 67%
10:00 +25°C° 0 mm 4 m/s 754 mmHg 58%
11:00 +26°C° 0 mm 4 m/s 754 mmHg 54%
12:00 +27°C° 0 mm 4 m/s 754 mmHg 50%
13:00 +27°C° 0 mm 4 m/s 754 mmHg 46%
14:00 +28°C° 0 mm 4 m/s 754 mmHg 45%
15:00 +28°C° 0 mm 4 m/s 753 mmHg 44%
16:00 +28°C° 0 mm 4 m/s 753 mmHg 43%
17:00 +27°C° 0 mm 4 m/s 753 mmHg 49%
18:00 +26°C° 0 mm 3 m/s 754 mmHg 55%
19:00 +24°C° 0 mm 3 m/s 754 mmHg 61%
20:00 +23°C° 0 mm 2 m/s 754 mmHg 62%
21:00 +23°C° 0 mm 2 m/s 754 mmHg 64%
22:00 +22°C° 0 mm 1 m/s 754 mmHg 65%
23:00 +20°C° 0 mm 2 m/s 754 mmHg 67%
Mostrar mais